Date,TemperatureHighF,TemperatureAvgF,TemperatureLowF,DewpointHighF,DewpointAvgF,DewpointLowF,HumidityHigh,HumidityAvg,HumidityLow,PressureMaxIn,PressureMinIn,WindSpeedMaxMPH,WindSpeedAvgMPH,GustSpeedMaxMPH,PrecipitationSumIn
2013-4-1,43.5,37.0,28.9,42.4,28.6,17.1,96,74,40,29.97,29.58,9,3,24,0.06
2013-4-2,35.7,29.6,24.9,28.8,22.8,19.1,89,76,59,30.12,29.95,7,3,21,0.05
2013-4-3,38.2,32.2,28.1,24.4,19.1,13.6,73,59,38,30.40,30.12,8,3,21,0.00
2013-4-4,56.2,36.9,23.3,24.9,21.5,17.3,86,58,22,30.38,29.93,6,1,12,0.00
2013-4-5,46.5,37.0,28.3,31.7,26.0,20.4,84,65,48,30.17,29.89,7,2,22,0.00
2013-4-6,48.1,36.7,24.0,26.2,21.3,17.0,85,56,32,30.35,30.07,4,1,11,0.00
2013-4-7,72.4,55.2,43.4,48.6,34.7,22.6,70,47,35,30.07,29.70,11,3,29,0.00
2013-4-8,59.6,47.8,41.7,44.3,38.3,34.3,93,71,50,30.14,29.76,4,1,10,0.02
2013-4-9,60.5,50.0,44.5,51.8,44.7,41.7,97,83,62,30.12,29.74,8,2,22,0.57
2013-4-10,46.7,43.2,40.1,45.9,42.1,39.1,97,96,93,30.07,29.89,4,1,13,0.54
2013-4-11,40.2,36.1,33.5,39.2,33.5,29.1,97,91,72,30.17,29.98,5,1,15,0.30
2013-4-12,52.8,41.9,35.3,49.0,38.7,33.0,98,89,74,29.99,29.56,8,3,18,0.80
2013-4-13,48.1,43.6,40.8,39.1,35.8,32.8,84,74,58,29.94,29.79,7,3,18,0.01
2013-4-14,45.6,40.3,32.7,34.8,30.7,27.5,89,69,52,30.22,29.94,6,2,15,0.01
2013-4-15,74.9,53.9,30.8,50.2,40.2,27.3,92,64,39,30.21,30.00,7,2,20,0.00
2013-4-16,66.7,58.4,45.8,59.2,51.0,35.5,95,77,64,30.25,29.96,7,2,18,0.12
2013-4-17,55.3,45.3,32.9,42.5,34.6,30.0,95,68,42,30.37,30.25,5,1,15,0.00
2013-4-18,78.7,61.6,40.1,59.9,50.1,35.2,85,67,48,30.27,29.71,7,3,20,0.00
2013-4-19,74.6,60.2,42.8,61.1,50.6,32.5,88,71,60,29.77,29.35,10,4,27,0.15
2013-4-20,43.9,40.0,34.2,34.3,28.4,21.7,79,63,50,30.43,29.74,9,4,24,0.01
2013-4-21,44.0,36.0,28.7,29.3,23.3,15.9,83,61,40,30.70,30.43,11,1,11,0.00
2013-4-22,60.0,45.1,28.4,33.4,28.1,20.8,85,55,30,30.64,30.36,17,2,17,0.00
2013-4-23,63.1,50.1,35.2,41.1,36.0,30.3,86,60,42,30.37,29.97,17,1,17,0.00
2013-4-24,69.9,52.3,40.6,56.3,45.6,35.9,94,79,57,30.00,29.58,21,2,21,0.14
2013-4-25,57.4,45.4,33.8,41.4,34.5,27.6,95,69,34,30.31,30.00,15,2,15,0.11
2013-4-26,53.8,43.9,34.1,41.8,34.5,26.6,98,72,41,30.48,30.32,14,1,0,0.01
2013-4-27,68.8,50.6,32.2,44.3,37.1,30.4,94,65,34,30.46,30.24,12,1,12,0.00
2013-4-28,76.3,57.5,39.4,50.8,41.5,36.4,92,62,25,30.24,30.03,16,2,18,0.09
2013-4-29,64.7,57.7,49.9,53.6,50.9,47.6,97,79,62,30.06,29.99,4,1,14,0.07
2013-4-30,73.9,62.7,53.8,59.6,53.8,50.9,97,75,51,30.22,30.05,4,1,12,0.02